Total_Precipitation_Accumulation
1.24 1.28 1.31 1.32 1.32 1.30 1.25 1.17 1.22 1.27 1.27 1.22 1.24 1.32 1.35 1.37 1.44 1.50 1.47 1.57 1.61 1.62 1.65 1.77 1.85 2.02 2.01 1.87 1.95 2.07 2.17 2.33 2.08 1.91 1.86 1.66 1.58 1.45 1.37 1.28 1.11 1.07 0.95
1.21 1.30 1.42 1.39 1.36 1.26 1.15 1.10 1.14 1.17 1.18 1.19 1.25 1.29 1.25 1.30 1.42 1.47 1.48 1.55 1.59 1.57 1.60 1.76 1.79 1.86 1.95 1.86 1.80 1.82 1.99 2.20 2.17 2.04 2.10 2.03 1.84 1.69 1.61 1.49 1.19 1.03 1.01
1.23 1.29 1.38 1.34 1.29 1.16 1.07 1.09 1.10 1.11 1.14 1.16 1.12 1.12 1.12 1.21 1.36 1.42 1.47 1.52 1.57 1.64 1.65 1.62 1.59 1.72 1.85 1.98 1.97 1.93 1.96 2.10 2.25 2.20 2.19 2.24 2.01 1.82 1.88 1.70 1.51 1.50 1.14
1.06 1.12 1.17 1.13 1.09 1.09 1.09 1.05 1.02 1.08 1.12 1.14 1.14 1.17 1.19 1.21 1.26 1.32 1.37 1.34 1.36 1.40 1.43 1.44 1.42 1.45 1.60 1.95 2.00 2.07 2.09 2.13 2.29 2.30 2.30 2.33 2.35 2.13 2.12 1.92 1.79 1.70 1.48
1.01 1.04 1.10 1.12 1.11 1.08 1.04 0.97 0.98 1.00 0.93 1.04 1.13 1.12 1.14 1.12 1.04 1.13 1.18 1.12 1.16 1.12 1.08 1.10 1.12 1.19 1.22 1.36 1.47 1.73 1.95 2.04 2.10 2.22 2.25 2.29 2.30 2.40 2.18 2.04 1.98 1.93 1.82
0.83 0.89 1.05 1.12 1.08 1.06 0.96 0.91 0.89 0.91 1.00 1.07 1.09 1.04 1.00 0.88 0.96 1.03 1.05 1.04 1.05 1.02 0.94 0.93 0.95 1.03 1.05 1.06 1.05 1.23 1.50 1.74 2.00 2.21 2.26 2.28 2.29 2.39 2.38 2.24 2.15 2.02 1.94
0.76 0.80 0.85 0.95 1.00 0.96 0.87 0.84 0.86 0.93 1.05 1.07 1.08 1.14 1.11 1.09 1.09 1.10 1.08 1.01 0.98 0.95 0.92 0.94 0.82 0.78 0.87 0.85 0.91 0.96 1.08 1.24 1.38 1.75 2.00 2.02 2.10 2.22 2.44 2.38 2.32 2.27 2.15
0.85 0.86 0.82 0.85 0.93 0.97 0.92 0.89 0.96 1.03 1.05 1.09 1.11 1.16 1.22 1.14 1.15 1.09 1.03 0.92 0.92 0.97 0.94 0.96 0.91 0.86 0.88 0.93 0.99 0.97 0.91 0.95 1.05 1.15 1.26 1.44 1.66 1.98 2.26 2.39 2.54 2.58 2.58
0.88 0.88 0.86 0.87 0.93 0.96 0.94 1.00 1.10 1.20 1.12 1.09 1.15 1.23 1.28 1.27 1.20 1.06 0.99 0.91 0.94 0.99 0.95 0.95 0.95 0.90 0.92 0.87 0.96 1.00 0.98 0.95 0.97 1.04 1.04 1.17 1.30 1.52 1.81 2.01 2.18 2.37 2.61
0.96 0.92 0.96 1.04 1.06 1.07 1.15 1.32 1.42 1.45 1.38 1.35 1.26 1.27 1.29 1.35 1.28 1.10 1.03 0.98 1.05 1.12 1.17 1.15 1.11 1.03 0.98 0.93 0.92 0.99 1.00 0.97 1.00 1.02 1.00 0.99 1.01 1.12 1.33 1.48 1.63 1.87 2.11
1.20 1.21 1.22 1.32 1.38 1.41 1.57 1.70 1.76 1.76 1.86 1.80 1.64 1.54 1.51 1.47 1.41 1.23 1.19 1.15 1.25 1.39 1.37 1.29 1.20 1.10 0.94 0.89 0.87 0.89 0.91 0.95 1.05 1.12 1.12 1.08 1.06 1.03 1.08 1.22 1.41 1.51 1.62
1.43 1.48 1.53 1.65 1.57 1.57 1.80 1.89 2.02 2.15 2.11 2.01 2.01 1.90 1.77 1.68 1.47 1.31 1.25 1.23 1.27 1.37 1.42 1.34 1.23 1.09 0.89 0.80 0.76 0.73 0.75 0.75 0.81 0.92 0.99 1.03 1.04 0.98 1.00 1.14 1.35 1.50 1.49
1.66 1.72 1.83 1.95 2.06 2.08 2.17 2.22 2.23 2.25 2.21 2.14 2.15 2.10 1.98 1.85 1.69 1.41 1.31 1.28 1.22 1.21 1.26 1.24 1.16 1.04 0.91 0.79 0.78 0.75 0.69 0.68 0.77 0.85 0.89 0.98 1.02 0.99 1.01 1.13 1.29 1.47 1.50
1.79 1.80 1.91 2.06 2.14 2.20 2.33 2.35 2.33 2.31 2.32 2.32 2.29 2.21 2.09 1.99 1.88 1.69 1.47 1.32 1.22 1.12 1.13 1.19 1.15 1.03 0.91 0.87 0.86 0.79 0.72 0.77 0.86 0.86 0.89 0.96 1.04 1.08 1.10 1.10 1.22 1.33 1.42
1.87 1.92 2.05 2.20 2.32 2.39 2.29 2.33 2.36 2.37 2.30 2.18 2.12 2.10 2.12 2.06 1.93 1.74 1.59 1.49 1.41 1.34 1.28 1.28 1.27 1.17 1.07 1.04 1.07 1.06 1.03 0.99 0.93 0.93 0.99 1.05 1.11 1.15 1.15 1.18 1.24 1.29 1.28
1.96 2.01 2.12 2.20 2.32 2.33 2.31 2.21 2.08 1.97 1.91 1.77 1.77 1.82 1.84 1.82 1.72 1.49 1.37 1.33 1.35 1.41 1.35 1.35 1.42 1.43 1.37 1.31 1.28 1.26 1.23 1.16 1.12 1.14 1.17 1.18 1.17 1.18 1.17 1.25 1.35 1.37 1.35
2.00 2.03 2.05 2.06 2.15 2.25 2.25 2.18 2.04 1.89 1.76 1.63 1.56 1.50 1.44 1.43 1.41 1.37 1.36 1.35 1.32 1.31 1.28 1.37 1.50 1.56 1.58 1.55 1.47 1.37 1.32 1.25 1.20 1.19 1.19 1.21 1.20 1.24 1.28 1.32 1.39 1.44 1.43
1.95 1.98 1.92 1.90 1.98 2.10 2.12 2.13 2.12 2.03 1.95 1.82 1.69 1.59 1.42 1.29 1.25 1.29 1.35 1.34 1.31 1.27 1.30 1.45 1.55 1.60 1.66 1.66 1.55 1.48 1.40 1.33 1.28 1.29 1.32 1.35 1.35 1.35 1.36 1.33 1.35 1.37 1.42
1.90 1.91 1.93 1.96 2.00 2.04 2.08 2.12 2.13 2.05 1.99 1.87 1.66 1.50 1.39 1.28 1.23 1.26 1.23 1.18 1.25 1.34 1.40 1.54 1.61 1.61 1.55 1.50 1.46 1.44 1.38 1.33 1.30 1.30 1.30 1.30 1.29 1.32 1.36 1.39 1.41 1.48 1.44
1.73 1.86 1.94 1.88 1.86 1.91 1.99 2.08 2.10 2.07 2.05 2.01 1.87 1.60 1.39 1.26 1.21 1.24 1.19 1.18 1.23 1.26 1.29 1.39 1.49 1.53 1.51 1.46 1.42 1.35 1.31 1.28 1.25 1.25 1.25 1.25 1.29 1.30 1.27 1.31 1.35 1.33 1.31
1.65 1.66 1.75 1.74 1.72 1.75 1.81 1.85 1.90 1.88 1.81 1.78 1.74 1.60 1.46 1.32 1.31 1.28 1.24 1.23 1.20 1.18 1.24 1.34 1.40 1.39 1.34 1.31 1.31 1.27 1.25 1.26 1.24 1.23 1.27 1.29 1.30 1.29 1.22 1.19 1.18 1.18 1.17
1.72 1.70 1.57 1.55 1.57 1.63 1.66 1.66 1.68 1.64 1.58 1.55 1.51 1.43 1.39 1.30 1.31 1.29 1.23 1.20 1.13 1.08 1.09 1.15 1.22 1.25 1.21 1.17 1.19 1.21 1.21 1.19 1.21 1.20 1.19 1.20 1.22 1.19 1.14 1.14 1.16 1.19 1.24
1.62 1.59 1.48 1.37 1.32 1.40 1.42 1.43 1.45 1.43 1.42 1.41 1.37 1.27 1.21 1.22 1.19 1.12 1.06 1.02 0.99 0.99 1.00 1.05 1.09 1.10 1.07 1.04 1.05 1.10 1.11 1.08 1.09 1.12 1.15 1.16 1.16 1.12 1.11 1.13 1.13 1.18 1.22
1.49 1.46 1.41 1.30 1.18 1.16 1.25 1.36 1.38 1.35 1.35 1.26 1.14 1.06 1.04 1.05 0.99 0.89 0.84 0.84 0.85 0.82 0.83 0.87 0.85 0.82 0.85 0.88 0.91 0.92 0.91 0.88 0.87 0.92 0.94 1.00 1.03 1.00 1.00 1.01 0.97 1.01 1.13
1.28 1.27 1.27 1.22 1.11 1.05 1.14 1.23 1.22 1.15 1.11 1.04 0.94 0.90 0.87 0.85 0.83 0.80 0.76 0.75 0.74 0.73 0.67 0.67 0.70 0.69 0.70 0.71 0.70 0.69 0.67 0.64 0.62 0.65 0.69 0.76 0.84 0.89 0.90 0.92 0.96 1.05 1.14
1.09 1.08 1.07 1.04 0.99 0.94 0.99 1.08 1.07 0.99 0.96 0.88 0.78 0.76 0.77 0.79 0.80 0.80 0.76 0.70 0.68 0.65 0.61 0.61 0.64 0.64 0.61 0.61 0.59 0.54 0.51 0.48 0.49 0.52 0.53 0.61 0.73 0.82 0.85 0.89 0.91 0.96 1.02